Location: Tucson
(32.2217°N, 110.9265°W)
Time: 05:00:53
(UTC-07:00)

N. Korean satellite - Visible Passes

Search period start: 26 March 2019 00:00
Search period end: 05 April 2019 00:00
Orbit: 456 x 510 km, 97.2° (Epoch: 26 March)

Date Brightness Start Highest point End Pass type
(mag) Time Alt. Az. Time Alt. Az. Time Alt. Az.
26 Mar 10.1 05:31:28 10° ENE 05:33:00 12° E 05:34:33 10° ESE visible
29 Mar 9.6 05:49:06 10° NE 05:52:01 22° E 05:54:55 10° SSE visible
30 Mar 10.5 05:26:25 10° E 05:27:04 10° E 05:27:42 10° ESE visible
02 Apr 9.7 05:43:22 10° NE 05:46:03 19° E 05:48:44 10° SE visible
